| time (UTC) | temp F | wind direction | speed knots | gust knots | rain 1hr in | rain 24hr in | rain mn in | humidity % | barometer mb |
| 20260507021519 | 55 | 339 | 2.6 | 7.8 | 0.00 | 0.00 | 0.00 | 53 | 1017.1 |
| 20260507020018 | 55 | 329 | 1.7 | 7.8 | 0.00 | 0.00 | 0.00 | 52 | 1017.0 |
| 20260507014517 | 55 | 29 | 3.5 | 8.7 | 0.00 | 0.00 | 0.00 | 52 | 1016.1 |
| 20260507013019 | 55 | 37 | 2.6 | 7.8 | 0.00 | 0.00 | 0.00 | 51 | 1015.5 |
| 20260507011517 | 56 | 19 | 6.1 | 11.3 | 0.00 | 0.00 | 0.00 | 50 | 1014.8 |
| 20260507010010 | 57 | 47 | 7.0 | 12.2 | 0.00 | 0.00 | 0.00 | 48 | 1014.5 |
| 20260507004523 | 58 | 45 | 5.2 | 13.9 | 0.00 | 0.00 | 0.00 | 48 | 1014.1 |
| 20260507003009 | 58 | 64 | 5.2 | 9.6 | 0.00 | 0.00 | 0.00 | 48 | 1014.1 |
| 20260507001507 | 58 | 39 | 6.1 | 13.9 | 0.00 | 0.00 | 0.00 | 47 | 1013.6 |
| 20260507000011 | 58 | 61 | 7.8 | 12.2 | 0.00 | 0.00 | 0.00 | 48 | 1013.3 |
| 20260506234508 | 58 | 49 | 7.8 | 14.8 | 0.00 | 0.00 | 0.00 | 48 | 1013.2 |
| 20260506233006 | 59 | 20 | 7.0 | 14.8 | 0.00 | 0.00 | 0.00 | 47 | 1013.3 |
| 20260506231516 | 58 | 48 | 6.1 | 16.5 | 0.00 | 0.00 | 0.00 | 48 | 1013.3 |
| 20260506230004 | 58 | 29 | 6.1 | 13.9 | 0.00 | 0.00 | 0.00 | 49 | 1013.2 |
| 20260506224504 | 58 | 39 | 7.0 | 15.6 | 0.00 | 0.00 | 0.00 | 48 | 1013.2 |
| 20260506223005 | 58 | 45 | 9.6 | 13.9 | 0.00 | 0.00 | 0.00 | 48 | 1013.5 |
| 20260506221503 | 58 | 41 | 8.7 | 12.2 | 0.00 | 0.00 | 0.00 | 48 | 1013.5 |
| 20260506220002 | 58 | 56 | 7.8 | 20.0 | 0.00 | 0.00 | 0.00 | 48 | 1013.6 |
| 20260506214503 | 59 | 38 | 7.8 | 15.6 | 0.00 | 0.00 | 0.00 | 48 | 1013.6 |
| 20260506213140 | 59 | 155 | 7.0 | 12.2 | 0.00 | 0.00 | 0.00 | 47 | 1013.6 |
| 20260506211627 | 60 | 126 | 7.0 | 11.3 | 0.00 | 0.00 | 0.00 | 47 | 1013.7 |
| 20260506204600 | 61 | 109 | 5.2 | 11.3 | 0.00 | 0.00 | 0.00 | 46 | 1013.7 |
| 20260506203102 | 59 | 124 | 5.2 | 11.3 | 0.00 | 0.00 | 0.00 | 47 | 1013.9 |
| 20260506201604 | 59 | 108 | 6.1 | 13.0 | 0.00 | 0.00 | 0.00 | 46 | 1013.7 |
| 20260506200100 | 59 | 158 | 5.2 | 15.6 | 0.00 | 0.00 | 0.00 | 46 | 1013.8 |
| 20260506194604 | 58 | 96 | 2.6 | 11.3 | 0.00 | 0.00 | 0.00 | 49 | 1013.8 |
| 20260506193052 | 58 | 165 | 3.5 | 11.3 | 0.00 | 0.00 | 0.00 | 49 | 1014.2 |
| 20260506191551 | 59 | 167 | 3.5 | 9.6 | 0.00 | 0.00 | 0.00 | 49 | 1014.2 |
| 20260506190050 | 58 | 138 | 5.2 | 8.7 | 0.00 | 0.00 | 0.00 | 48 | 1014.5 |
| 20260506184600 | 58 | 154 | 4.3 | 8.7 | 0.00 | 0.00 | 0.00 | 49 | 1014.4 |
| 20260506183059 | 58 | 107 | 3.5 | 9.6 | 0.00 | 0.00 | 0.00 | 50 | 1014.8 |
| 20260506181547 | 56 | 131 | 2.6 | 7.8 | 0.00 | 0.00 | 0.00 | 52 | 1015.0 |
| 20260506180049 | 58 | 124 | 4.3 | 7.0 | 0.00 | 0.00 | 0.00 | 48 | 1015.3 |
| 20260506174546 | 57 | 98 | 1.7 | 6.1 | 0.00 | 0.00 | 0.00 | 51 | 1015.3 |
| 20260506173049 | 56 | 351 | 1.7 | 7.0 | 0.00 | 0.00 | 0.00 | 51 | 1015.4 |
| 20260506171541 | 53 | 151 | 2.6 | 7.0 | 0.00 | 0.00 | 0.00 | 55 | 1015.4 |
| 20260506170057 | 54 | 155 | 1.7 | 7.0 | 0.00 | 0.00 | 0.00 | 54 | 1015.4 |
| 20260506164537 | 55 | 120 | 2.6 | 5.2 | 0.00 | 0.00 | 0.00 | 54 | 1015.4 |
| 20260506163034 | 52 | 115 | 1.7 | 7.0 | 0.00 | 0.00 | 0.00 | 58 | 1015.4 |
| 20260506161533 | 51 | 101 | 2.6 | 7.0 | 0.00 | 0.00 | 0.00 | 59 | 1015.3 |
| 20260506160032 | 50 | 192 | 0.9 | 7.8 | 0.00 | 0.00 | 0.00 | 60 | 1015.0 |
| 20260506154531 | 49 | 155 | 1.7 | 6.1 | 0.00 | 0.00 | 0.00 | 64 | 1014.9 |
| 20260506153024 | 48 | 202 | 0.0 | 4.3 | 0.00 | 0.00 | 0.00 | 64 | 1014.8 |
| 20260506151522 | 48 | 183 | 1.7 | 7.0 | 0.00 | 0.00 | 0.00 | 65 | 1014.8 |
| 20260506150019 | 47 | 187 | 0.9 | 6.1 | 0.00 | 0.00 | 0.00 | 67 | 1014.9 |
| 20260506144517 | 47 | 181 | 1.7 | 5.2 | 0.00 | 0.00 | 0.00 | 65 | 1014.6 |
| 20260506143025 | 47 | 188 | 2.6 | 6.1 | 0.00 | 0.00 | 0.00 | 67 | 1014.3 |
| 20260506141511 | 45 | 166 | 3.5 | 8.7 | 0.00 | 0.00 | 0.00 | 68 | 1013.9 |
| 20260506140011 | 44 | 157 | 4.3 | 8.7 | 0.00 | 0.00 | 0.00 | 70 | 1014.1 |
| 20260506134511 | 44 | 143 | 5.2 | 10.4 | 0.00 | 0.00 | 0.00 | 71 | 1013.9 |
| 20260506133009 | 43 | 158 | 5.2 | 9.6 | 0.00 | 0.00 | 0.00 | 71 | 1013.9 |
| 20260506131510 | 43 | 155 | 3.5 | 7.8 | 0.00 | 0.00 | 0.00 | 73 | 1014.1 |
| 20260506130012 | 42 | 163 | 3.5 | 7.0 | 0.00 | 0.00 | 0.00 | 74 | 1014.5 |
| 20260506124506 | 42 | 120 | 2.6 | 6.1 | 0.00 | 0.00 | 0.00 | 74 | 1014.3 |
| 20260506123006 | 42 | 158 | 2.6 | 4.3 | 0.00 | 0.00 | 0.00 | 75 | 1014.1 |
| 20260506121503 | 42 | 123 | 3.5 | 7.0 | 0.00 | 0.00 | 0.00 | 76 | 1013.9 |
| 20260506120002 | 41 | 124 | 1.7 | 7.0 | 0.00 | 0.00 | 0.00 | 78 | 1013.7 |
| 20260506114558 | 41 | 122 | 3.5 | 7.8 | 0.00 | 0.00 | 0.00 | 82 | 1013.3 |
| 20260506113058 | 41 | 129 | 3.5 | 8.7 | 0.00 | 0.00 | 0.00 | 84 | 1013.2 |
| 20260506111555 | 41 | 136 | 3.5 | 8.7 | 0.00 | 0.00 | 0.00 | 84 | 1012.6 |
| 20260506110054 | 41 | 120 | 4.3 | 9.6 | 0.00 | 0.00 | 0.00 | 86 | 1012.9 |
| 20260506104550 | 41 | 176 | 3.5 | 8.7 | 0.00 | 0.00 | 0.00 | 86 | 1012.8 |
| 20260506103053 | 42 | 120 | 5.2 | 9.6 | 0.00 | 0.00 | 0.00 | 85 | 1012.7 |
| 20260506101544 | 43 | 130 | 3.5 | 7.0 | 0.00 | 0.00 | 0.00 | 83 | 1012.5 |
| 20260506100042 | 43 | 148 | 3.5 | 7.8 | 0.00 | 0.00 | 0.00 | 82 | 1012.2 |
| 20260506094539 | 44 | 137 | 4.3 | 10.4 | 0.00 | 0.00 | 0.00 | 81 | 1011.7 |
| 20260506093036 | 44 | 159 | 4.3 | 9.6 | 0.00 | 0.00 | 0.00 | 79 | 1011.3 |
| 20260506091535 | 44 | 136 | 5.2 | 8.7 | 0.00 | 0.00 | 0.00 | 78 | 1011.0 |
| 20260506090044 | 44 | 134 | 4.3 | 8.7 | 0.00 | 0.00 | 0.00 | 78 | 1010.8 |
| 20260506084534 | 44 | 101 | 2.6 | 10.4 | 0.00 | 0.00 | 0.00 | 78 | 1011.0 |
| 20260506083032 | 44 | 105 | 4.3 | 7.8 | 0.00 | 0.00 | 0.00 | 78 | 1010.9 |
| 20260506081531 | 43 | 118 | 3.5 | 9.6 | 0.00 | 0.00 | 0.00 | 78 | 1010.6 |
| 20260506073023 | 43 | 141 | 3.5 | 7.0 | 0.00 | 0.00 | 0.00 | 79 | 1009.6 |
| 20260506071522 | 43 | 136 | 3.5 | 7.8 | 0.00 | 0.00 | 0.00 | 79 | 1010.0 |
| 20260506061515 | 44 | 141 | 1.7 | 7.8 | 0.00 | 0.00 | 0.00 | 76 | 1009.7 |
| 20260506050108 | 46 | 164 | 3.5 | 7.8 | 0.00 | 0.00 | 0.00 | 70 | 1008.0 |
| 20260506044552 | 47 | 133 | 3.5 | 11.3 | 0.00 | 0.00 | 0.00 | 67 | 1008.0 |
| 20260506043046 | 47 | 129 | 4.3 | 7.8 | 0.00 | 0.00 | 0.00 | 66 | 1007.9 |
| 20260506041536 | 48 | 129 | 3.5 | 11.3 | 0.00 | 0.00 | 0.00 | 64 | 1007.6 |
| 20260506040032 | 49 | 142 | 2.6 | 7.0 | 0.00 | 0.00 | 0.00 | 62 | 1007.8 |
| 20260506034530 | 50 | 152 | 4.3 | 7.0 | 0.00 | 0.00 | 0.00 | 61 | 1007.5 |
| 20260506033026 | 50 | 147 | 3.5 | 9.6 | 0.00 | 0.00 | 0.00 | 60 | 1007.1 |
| 20260506031529 | 50 | 126 | 5.2 | 10.4 | 0.00 | 0.00 | 0.00 | 59 | 1007.0 |
| 20260506030022 | 51 | 119 | 3.5 | 9.6 | 0.00 | 0.00 | 0.00 | 58 | 1006.8 |
| 20260506024534 | 52 | 113 | 5.2 | 12.2 | 0.00 | 0.00 | 0.00 | 56 | 1006.3 |
| 20260506023016 | 53 | 146 | 6.1 | 9.6 | 0.00 | 0.00 | 0.00 | 55 | 1006.3 |